Location: El Mouella
(16.4949°N, 9.1594°W)
Time: 01:23:24
(UTC+00:00)

Hubble Space Telescope - Pass Details

Date: 02 June 2020
Orbit: 536 x 540 km, 28.5° (Epoch: 13 July)

Event Time Altitude Azimuth Distance (km) Brightness Sun altitude
Rises 19:33:52 0° 305° (NW) 2,674 6.6 -6.8°
Reaches altitude 10° 19:36:26 10° 318° (NW) 1,784 4.7 -7.3°
Maximum altitude 19:39:53 25° 15° (NNE) 1,093 2.5 -8.1°
Drops below altitude 10° 19:43:21 10° 72° (ENE) 1,783 3.0 -8.8°
Enters shadow 19:44:17 - 79° (E) 2,099 3.3 -9.0°
